Location: Poughquag
(41.6090°N, 73.6820°W)
Time: 07:37:27
(UTC-04:00)

Vanguard 2 Rocket - All Passes

Search period start: 29 May 2020 00:00
Search period end: 08 June 2020 00:00
Orbit: 555 x 3325 km, 32.9° (Epoch: 28 May)

Date Brightness Start Highest point End Pass type
(mag) Time Alt. Az. Time Alt. Az. Time Alt. Az.
29 May - 15:28:05 10° SSW 15:35:02 36° SSE 15:46:23 10° E daylight
29 May - 17:39:09 10° WSW 17:48:55 58° S 18:05:32 10° E daylight
29 May - 19:52:06 10° W 20:04:51 54° SSW 20:23:37 10° SE daylight
29 May - 22:07:16 10° W 22:21:19 34° SSW 22:38:02 10° SSE visible
30 May - 00:31:21 10° WSW 00:36:43 12° SW 00:42:09 10° SSW visible
30 May - 14:30:17 10° SSW 14:35:43 24° SE 14:43:46 10° E daylight
30 May - 16:40:16 10° WSW 16:48:33 52° SSE 17:02:58 10° E daylight
30 May - 18:52:31 10° W 19:03:41 57° S 19:21:36 10° ESE daylight
30 May - 21:06:31 10° W 21:19:58 41° SSW 21:37:41 10° SE visible
30 May - 23:25:10 10° WSW 23:35:51 18° SW 23:47:21 10° S visible
31 May - 13:33:38 10° SSE 13:36:45 14° SE 13:40:36 10° ESE daylight
31 May - 15:41:42 10° SW 15:48:38 43° SSE 16:00:30 10° E daylight
31 May - 17:53:15 10° WSW 18:02:51 57° S 18:19:16 10° ESE daylight
31 May - 20:06:24 10° W 20:18:41 46° SSW 20:36:34 10° SE daylight
31 May - 22:22:33 10° W 22:34:47 25° SW 22:49:08 10° S visible
01 Jun - 14:43:28 10° SSW 14:49:10 32° SSE 14:58:14 10° E daylight
01 Jun - 16:54:15 10° WSW 17:02:27 55° S 17:16:49 10° ESE daylight
01 Jun - 19:06:45 10° W 19:17:36 51° SSW 19:34:52 10° SE daylight
01 Jun - 21:21:19 10° W 21:33:37 31° SSW 21:49:31 10° SSE visible
01 Jun - 23:46:28 10° SW 23:49:13 10° SW 23:52:02 10° SW visible
02 Jun - 13:45:50 10° S 13:50:05 20° SE 13:56:00 10° E daylight
02 Jun - 15:55:33 10° WSW 16:02:27 48° SSE 16:14:29 10° E daylight
02 Jun - 18:07:24 10° W 18:16:51 53° S 18:32:47 10° ESE daylight
02 Jun - 20:20:56 10° W 20:32:30 37° SSW 20:48:57 10° SSE daylight
02 Jun - 22:39:15 10° WSW 22:48:18 17° SW 22:58:30 10° S visible
03 Jun - 12:50:07 10° SSE 12:51:14 11° SE 12:52:27 10° SE daylight
03 Jun - 14:57:06 10° SW 15:02:52 38° SSE 15:12:24 10° E daylight
03 Jun - 17:08:23 10° WSW 17:16:25 53° S 17:30:32 10° ESE daylight
03 Jun - 19:21:06 10° W 19:31:32 42° SSW 19:47:42 10° SE daylight
03 Jun - 21:36:50 10° WSW 21:47:18 22° SW 22:00:16 10° S visible
04 Jun - 13:58:59 10° SSW 14:03:38 27° SSE 14:10:35 10° E daylight
04 Jun - 16:09:34 10° WSW 16:16:23 50° S 16:28:22 10° ESE daylight
04 Jun - 18:21:42 10° W 18:30:50 46° SSW 18:45:59 10° SE daylight
04 Jun - 20:35:53 10° W 20:46:20 28° SSW 21:00:34 10° SSE visible
05 Jun - 13:01:28 10° S 13:04:40 17° SE 13:08:45 10° ESE daylight
05 Jun - 15:10:59 10° WSW 15:16:43 43° SSE 15:26:26 10° E daylight
05 Jun - 17:22:36 10° WSW 17:30:28 48° S 17:44:03 10° ESE daylight
05 Jun - 19:35:45 10° W 19:45:29 33° SSW 19:59:57 10° SSE daylight
05 Jun - 21:54:16 10° WSW 22:01:03 14° SW 22:08:48 10° SSW visible
06 Jun - 14:12:36 10° SW 14:17:24 34° SSE 14:24:50 10° E daylight
06 Jun - 16:23:44 10° WSW 16:30:25 48° S 16:42:05 10° ESE daylight
06 Jun - 18:36:09 10° W 18:44:52 37° SSW 18:58:44 10° SE daylight
06 Jun - 20:51:46 10° WSW 21:00:11 19° SSW 21:10:54 10° S visible
07 Jun - 13:14:32 10° SSW 13:18:19 23° SSE 13:23:30 10° ESE daylight
07 Jun - 15:25:02 10° WSW 15:30:43 45° S 15:40:21 10° ESE daylight
07 Jun - 17:36:57 10° WSW 17:44:32 40° SSW 17:57:12 10° SE daylight
07 Jun - 19:50:56 10° WSW 19:59:28 24° SSW 20:11:18 10° SSE daylight
